Rbgn^[z[y[W
メイン
   新天体発見情報
     Comet C/2024 M1 (ATLAS)
投稿するにはまず登録を

フラット表示 前のトピック | 次のトピック
投稿者 スレッド
佐藤裕久
投稿日時: 2024-7-29 0:14
モデレータ
登録日: 2005-6-12
居住地: 日本
投稿: 2585
オンライン
Comet C/2024 M1 (ATLAS)

5月6.3日UT、チリ Rio Hurtadoにある小惑星地球衝突最終警報システム Asteroid Terrestrial-impact  
Last Alert System (ATLAS)調査プログラムのコースに0.5-m Schmidt 反射望遠鏡で得た、CCD画像から
小惑星状天体を発見した。
小惑星センターのPCCP webpageに公表後、吉本勝巳氏(山口県熊毛郡平生町, 7月8.4日UT、30-秒CCD露出
20枚のスタック, "Deep Sky Chile"天文台のiTelescope 0.51-m f/6.8 Corrected Dall-Kirkham望遠鏡, 
Rio Hurtado, チリ: 非常に集光した6"のコマが見え、 p.a. 240°に6"のかすかな尾が見える。全光度
は18.4等)らCCD位置観測者によって彗星状と観測された。

彗星機能の報告は次のとおり、

OC   Date        Reporter           Coma    Tail    PA          Exposures
W88  2024-07-08  N. Paul            7".7                         15x50s
X07  2024-07-08  K. Yoshimoto       8"        6"   240           20x30s
X07  2024-07-18  T. Prystavski      8".7      8".7 272           11x60s

発見位置は次のとおり、

     2024 UT             R.A. (2000) Decl.       Mag.
     June 29.42281    4 52 44.54   -39 09 57.6   17.8
          29.42694    4 52 45.05   -39 09 54.4   17.6
          29.43200    4 52 45.62   -39 09 50.9   17.9
          29.44441    4 52 47.00   -39 09 41.7   18.3

MPCの楕円軌道要素、位置推算表は次のとおり、

Orbital elements:
    C/2024 M1 (ATLAS)                                                           
Epoch 2024 Mar. 31.0 TT = JDT 2460400.5                                         
T 2024 Nov. 20.03882 TT                                 Rudenko                 
q   1.7034779            (2000.0)            P               Q                  
n   0.00605275     Peri.  345.60102     +0.29853878     -0.20460995             
a  29.8195417      Node    76.21495     +0.94276116     -0.08883721             
e   0.9428738      Incl.   73.70992     +0.14857990     +0.97480394             
P 163                                                                           
From 120 observations 2022 May 10-2024 July 19, mean residual 0".2.             
                                                                                
Ephemeris:
Date    TT    R. A. (2000) Decl.     Delta      r    Elong.  Phase   m1
2024 06 20    04 34 02.1 -41 11 50   2.7449  2.5326    67.3    21.7  18.2
...
2024 07 05    05 03 19.5 -38 01 37   2.6269  2.4079    66.4    22.8  17.9
...
2024 07 13    05 17 52.1 -36 28 51   2.5625  2.3431    66.1    23.4  17.7
...
2024 07 19    05 28 16.0 -35 23 24   2.5125  2.2954    66.0    23.9  17.6
2024 07 20    05 29 57.4 -35 12 50   2.5040  2.2875    66.0    23.9  17.6
2024 07 21    05 31 38.1 -35 02 22   2.4955  2.2797    66.0    24.0  17.6
...
2024 07 27    05 41 26.6 -34 01 36   2.4430  2.2332    66.1    24.6  17.4
...
2024 08 04    05 53 48.9 -32 45 57   2.3690  2.1728    66.5    25.3  17.2
...
2024 08 19    06 14 38.6 -30 38 51   2.2152  2.0656    68.2    27.1  16.9

(MPEC 2024-O16、CBET 5419)

フラット表示 前のトピック | 次のトピック

題名 投稿者 日時
 » Comet C/2024 M1 (ATLAS) 佐藤裕久 2024-7-29 0:14

投稿するにはまず登録を
 
© 1999 Tsutomu Seki.